• In Belgium
  • List of Countries
  • For 7 days
  • Water Temperature
  • Satellite Maps
  • Weather Map
  • Weather Widgets
  • user-avatar
    Login

    Hourly Weather Albany

    Today, 18 June, Monday

    Time Temperature Precipitation Wind Pressure Humidity
    00:00 +17°C° 0 mm 8 mps 752 mmHg 42%
    01:00 +17°C° 0 mm 8 mps 752 mmHg 45%
    02:00 +17°C° 0 mm 8 mps 752 mmHg 47%
    03:00 +17°C° 0.7 mm 8 mps 751 mmHg 58%
    04:00 +16°C° 0.7 mm 8 mps 751 mmHg 68%
    05:00 +16°C° 0.7 mm 8 mps 751 mmHg 79%
    06:00 +15°C° 1.6 mm 8 mps 752 mmHg 82%
    07:00 +13°C° 1.6 mm 8 mps 752 mmHg 85%
    08:00 +12°C° 0 mm 8 mps 752 mmHg 87%
    09:00 +12°C° 0.2 mm 8 mps 753 mmHg 80%
    10:00 +13°C° 0.2 mm 9 mps 753 mmHg 73%
    11:00 +13°C° 0.2 mm 9 mps 754 mmHg 66%
    12:00 +13°C° 0.5 mm 9 mps 754 mmHg 66%
    13:00 +13°C° 0.5 mm 9 mps 754 mmHg 66%
    14:00 +12°C° 0.5 mm 9 mps 755 mmHg 66%
    15:00 +12°C° 0.3 mm 9 mps 755 mmHg 67%
    16:00 +11°C° 0.3 mm 8 mps 756 mmHg 68%
    17:00 +10°C° 0.3 mm 8 mps 757 mmHg 69%
    18:00 +10°C° 0.2 mm 7 mps 757 mmHg 70%
    19:00 +10°C° 0.2 mm 7 mps 758 mmHg 71%
    20:00 +9°C° 0.2 mm 7 mps 758 mmHg 72%
    21:00 +9°C° 0.1 mm 7 mps 759 mmHg 73%
    22:00 +9°C° 0.1 mm 6 mps 759 mmHg 75%
    23:00 +9°C° 0.1 mm 6 mps 759 mmHg 76%

    Tomorrow, 19 June, Tuesday

    Time Temperature Precipitation Wind Pressure Humidity
    00:00 +9°C° 0 mm 6 mps 760 mmHg 78%
    01:00 +9°C° 0 mm 6 mps 760 mmHg 79%
    02:00 +9°C° 0 mm 6 mps 760 mmHg 81%
    03:00 +9°C° 0.2 mm 6 mps 760 mmHg 80%
    04:00 +10°C° 0.2 mm 6 mps 760 mmHg 79%
    05:00 +10°C° 0.2 mm 6 mps 760 mmHg 78%
    06:00 +10°C° 0.2 mm 6 mps 760 mmHg 79%
    07:00 +10°C° 0.2 mm 7 mps 760 mmHg 80%
    08:00 +11°C° 0.2 mm 7 mps 760 mmHg 80%
    09:00 +12°C° 0.2 mm 7 mps 760 mmHg 79%
    10:00 +14°C° 0.2 mm 7 mps 760 mmHg 77%
    11:00 +16°C° 0.2 mm 7 mps 761 mmHg 75%
    12:00 +16°C° 0.2 mm 7 mps 761 mmHg 73%
    13:00 +16°C° 0.2 mm 7 mps 761 mmHg 71%
    14:00 +17°C° 0.2 mm 7 mps 760 mmHg 69%
    15:00 +16°C° 0.1 mm 6 mps 761 mmHg 71%
    16:00 +15°C° 0.1 mm 6 mps 761 mmHg 74%
    17:00 +14°C° 0.1 mm 5 mps 762 mmHg 76%
    18:00 +14°C° 0.1 mm 5 mps 762 mmHg 78%
    19:00 +14°C° 0.1 mm 5 mps 763 mmHg 80%
    20:00 +13°C° 0.1 mm 5 mps 763 mmHg 81%
    21:00 +13°C° 0.1 mm 4 mps 763 mmHg 83%
    22:00 +13°C° 0.1 mm 4 mps 764 mmHg 84%
    23:00 +13°C° 0.1 mm 4 mps 764 mmHg 85%

    Day after tomorrow, 20 June, Wednesday

    Time Temperature Precipitation Wind Pressure Humidity
    00:00 +13°C° 0.1 mm 4 mps 764 mmHg 85%
    01:00 +12°C° 0.1 mm 4 mps 764 mmHg 85%
    02:00 +12°C° 0.1 mm 4 mps 764 mmHg 85%
    03:00 +12°C° 0 mm 4 mps 764 mmHg 86%
    04:00 +11°C° 0 mm 4 mps 764 mmHg 87%
    05:00 +11°C° 0 mm 4 mps 763 mmHg 88%
    06:00 +10°C° 0.1 mm 5 mps 764 mmHg 88%
    07:00 +10°C° 0.1 mm 5 mps 764 mmHg 87%
    08:00 +10°C° 0.1 mm 5 mps 764 mmHg 87%
    09:00 +13°C° 0.1 mm 5 mps 764 mmHg 82%
    10:00 +14°C° 0.1 mm 5 mps 764 mmHg 77%
    11:00 +16°C° 0.1 mm 6 mps 764 mmHg 73%
    12:00 +17°C° 0.1 mm 6 mps 764 mmHg 70%
    13:00 +17°C° 0.1 mm 6 mps 763 mmHg 68%
    14:00 +19°C° 0.1 mm 6 mps 763 mmHg 65%
    15:00 +17°C° 0.2 mm 6 mps 763 mmHg 69%
    16:00 +16°C° 0.2 mm 5 mps 763 mmHg 72%
    17:00 +15°C° 0.2 mm 5 mps 763 mmHg 76%
    18:00 +15°C° 0 mm 5 mps 763 mmHg 79%
    19:00 +14°C° 0 mm 5 mps 763 mmHg 81%
    20:00 +13°C° 0 mm 5 mps 764 mmHg 84%
    21:00 +13°C° 0.1 mm 5 mps 764 mmHg 85%
    22:00 +13°C° 0.1 mm 5 mps 764 mmHg 86%
    23:00 +13°C° 0.1 mm 5 mps 764 mmHg 86%

    21 June, Thursday

    Time Temperature Precipitation Wind Pressure Humidity
    00:00 +12°C° 0.3 mm 5 mps 764 mmHg 87%
    01:00 +12°C° 0.3 mm 5 mps 764 mmHg 88%
    02:00 +12°C° 0.3 mm 5 mps 764 mmHg 89%
    03:00 +12°C° 0.1 mm 4 mps 764 mmHg 89%
    04:00 +12°C° 0.1 mm 4 mps 764 mmHg 89%
    05:00 +12°C° 0.1 mm 3 mps 764 mmHg 89%
    06:00 +13°C° 0 mm 3 mps 764 mmHg 89%
    07:00 +13°C° 0 mm 3 mps 764 mmHg 89%
    08:00 +13°C° 0 mm 3 mps 765 mmHg 88%
    09:00 +15°C° 0.1 mm 2 mps 765 mmHg 84%
    10:00 +16°C° 0.1 mm 2 mps 765 mmHg 80%
    11:00 +17°C° 0.1 mm 2 mps 765 mmHg 76%
    12:00 +17°C° 0 mm 2 mps 765 mmHg 75%
    13:00 +17°C° 0 mm 2 mps 764 mmHg 73%
    14:00 +17°C° 0 mm 2 mps 764 mmHg 72%
    15:00 +16°C° 0.2 mm 2 mps 764 mmHg 78%
    16:00 +16°C° 0.2 mm 2 mps 764 mmHg 83%
    17:00 +15°C° 0.2 mm 2 mps 764 mmHg 88%
    18:00 +14°C° 0.1 mm 3 mps 764 mmHg 88%
    19:00 +13°C° 0.1 mm 3 mps 765 mmHg 88%
    20:00 +13°C° 0.1 mm 3 mps 765 mmHg 88%
    21:00 +13°C° 0 mm 3 mps 765 mmHg 86%
    22:00 +13°C° 0 mm 3 mps 765 mmHg 84%
    23:00 +13°C° 0 mm 3 mps 765 mmHg 82%

    22 June, Friday

    Time Temperature Precipitation Wind Pressure Humidity
    00:00 +12°C° 0 mm 3 mps 765 mmHg 82%
    01:00 +12°C° 0 mm 3 mps 764 mmHg 81%
    02:00 +11°C° 0 mm 3 mps 764 mmHg 81%
    03:00 +11°C° 0 mm 3 mps 764 mmHg 81%
    04:00 +11°C° 0 mm 3 mps 764 mmHg 81%
    05:00 +10°C° 0 mm 2 mps 764 mmHg 80%
    06:00 +10°C° 0 mm 2 mps 765 mmHg 81%
    07:00 +10°C° 0 mm 2 mps 765 mmHg 82%
    08:00 +10°C° 0 mm 2 mps 765 mmHg 82%
    09:00 +13°C° 0 mm 2 mps 765 mmHg 75%
    10:00 +13°C° 0 mm 3 mps 765 mmHg 68%
    11:00 +16°C° 0 mm 3 mps 765 mmHg 60%
    12:00 +16°C° 0 mm 3 mps 765 mmHg 57%
    13:00 +17°C° 0 mm 3 mps 764 mmHg 54%
    14:00 +18°C° 0 mm 3 mps 764 mmHg 51%
    15:00 +17°C° 0 mm 3 mps 764 mmHg 56%
    16:00 +16°C° 0 mm 3 mps 764 mmHg 61%
    17:00 +14°C° 0 mm 3 mps 764 mmHg 66%
    18:00 +13°C° 0.1 mm 3 mps 765 mmHg 69%
    19:00 +13°C° 0.1 mm 3 mps 765 mmHg 73%
    20:00 +13°C° 0.1 mm 3 mps 765 mmHg 76%
    21:00 +12°C° 0 mm 4 mps 765 mmHg 79%
    22:00 +12°C° 0 mm 4 mps 765 mmHg 82%
    23:00 +11°C° 0 mm 4 mps 765 mmHg 84%

    23 June, Saturday

    Time Temperature Precipitation Wind Pressure Humidity
    00:00 +11°C° 0.2 mm 4 mps 764 mmHg 86%
    01:00 +11°C° 0.2 mm 4 mps 764 mmHg 87%
    02:00 +11°C° 0.2 mm 4 mps 764 mmHg 88%
    03:00 +11°C° 0.2 mm 4 mps 764 mmHg 89%
    04:00 +11°C° 0.2 mm 4 mps 764 mmHg 89%
    05:00 +11°C° 0.2 mm 4 mps 764 mmHg 90%
    06:00 +11°C° 0.1 mm 4 mps 764 mmHg 90%
    07:00 +11°C° 0.1 mm 4 mps 765 mmHg 90%
    08:00 +12°C° 0.1 mm 4 mps 765 mmHg 90%
    09:00 +13°C° 0.1 mm 3 mps 765 mmHg 84%
    10:00 +14°C° 0.1 mm 3 mps 765 mmHg 77%
    11:00 +17°C° 0.1 mm 3 mps 765 mmHg 71%
    12:00 +17°C° 0 mm 3 mps 765 mmHg 68%
    13:00 +17°C° 0 mm 4 mps 764 mmHg 65%
    14:00 +17°C° 0 mm 4 mps 764 mmHg 62%
    15:00 +17°C° 0 mm 4 mps 764 mmHg 64%
    16:00 +16°C° 0 mm 3 mps 764 mmHg 66%
    17:00 +14°C° 0 mm 3 mps 765 mmHg 69%
    18:00 +13°C° 0 mm 3 mps 765 mmHg 71%
    19:00 +12°C° 0 mm 3 mps 766 mmHg 74%
    20:00 +13°C° 0 mm 2 mps 766 mmHg 77%
    21:00 +12°C° 0 mm 2 mps 766 mmHg 78%
    22:00 +12°C° 0 mm 2 mps 766 mmHg 80%
    23:00 +10°C° 0 mm 2 mps 766 mmHg 81%
    Show more